Albion, NE

10:19 AM CDT on May 27, 2017 (GMT -0500)
Albion Municipal

Weather History for KBVN - October, 2012

Change the Weather History Date:

Monday, October 29, 2012

  Actual Average (KOFK) Record (KOFK)
Temperature  
Mean Temperature 47 °F -  
Max Temperature 61 °F 55 °F 84 °F (1937)
Min Temperature 33 °F 34 °F 6 °F (1925)
Degree Days  
Heating Degree Days 18    
Moisture  
Dew Point 30 °F    
Average Humidity 53    
Maximum Humidity 77    
Minimum Humidity 31    
Precipitation  
Precipitation 0.00 in - - ()
Sea Level Pressure  
Sea Level Pressure 30.08 in    
Wind  
Wind Speed 10 mph (SSE)    
Max Wind Speed 14 mph    
Max Gust Speed 21 mph    
Visibility 10 miles    
Events      
Averages and records for this station are not official NWS values.
T = Trace of Precipitation, MM = Missing Value Source: NWS Daily Summary

Daily Weather History Graph

Daily Weather History Graph

Search for Another Location

Airport or City:

Trip Planner

Search our weather history database for the weather conditions in past years. The results will help you decide how hot, cold, wet, or windy it might be!

Date:

Astronomy

Oct. 29, 2012 Rise Set
Actual Time 8:01 AM CDT 6:29 PM CDT
Civil Twilight 7:32 AM CDT 6:58 PM CDT
Nautical Twilight 6:59 AM CDT 7:31 PM CDT
Astronomical Twilight 6:27 AM CDT 8:03 PM CDT
Moon 6:22 PM CDT (10/29) 7:53 AM CDT (10/29)
Length of Visible Light 11h 25m
Length of Day
10h 28m
Full, 100% of the Moon is Illuminated
Oct 29
Full
Oct 29
Full
Nov 6
Last Quarter
Nov 13
New
Nov 20
First Quarter

Hourly Weather History & Observations

Time (CDT) Temp. Windchill Dew Point Humidity Pressure Visibility Wind Dir Wind Speed Gust Speed Precip Events Conditions
12:15 AM 45.1 °F 40.3 °F 31.1 °F 58% 30.13 in 10.0 mi SSE 9.2 mph 16.1 mph N/A   Overcast
12:35 AM 45.0 °F 39.3 °F 31.1 °F 58% 30.13 in 10.0 mi SSE 11.5 mph - N/A   Mostly Cloudy
12:55 AM 45.0 °F 38.5 °F 30.9 °F 58% 30.12 in 10.0 mi SSE 13.8 mph 20.7 mph N/A   Overcast
1:15 AM 44.8 °F 38.3 °F 30.7 °F 58% 30.12 in 10.0 mi SSE 13.8 mph - N/A   Overcast
1:35 AM 45.0 °F 38.9 °F 30.2 °F 56% 30.11 in 10.0 mi SSE 12.7 mph - N/A   Mostly Cloudy
1:55 AM 44.6 °F 38.1 °F 30.2 °F 57% 30.11 in 10.0 mi SSE 13.8 mph 19.6 mph N/A   Scattered Clouds
2:15 AM 44.6 °F 38.4 °F 30.0 °F 57% 30.10 in 10.0 mi SSE 12.7 mph - N/A   Scattered Clouds
2:35 AM 44.6 °F 38.1 °F 29.8 °F 56% 30.10 in 10.0 mi SSE 13.8 mph - N/A   Scattered Clouds
2:55 AM 44.1 °F 37.7 °F 29.7 °F 57% 30.10 in 10.0 mi SSE 12.7 mph - N/A   Scattered Clouds
3:15 AM 43.9 °F 37.9 °F 29.7 °F 57% 30.10 in 10.0 mi SSE 11.5 mph 17.3 mph N/A   Mostly Cloudy
3:35 AM 43.0 °F 37.2 °F 29.5 °F 59% 30.09 in 10.0 mi SSE 10.4 mph - N/A   Scattered Clouds
3:55 AM 42.8 °F 37.0 °F 29.3 °F 59% 30.09 in 10.0 mi SSE 10.4 mph - N/A   Scattered Clouds
4:15 AM 41.9 °F 36.3 °F 29.1 °F 61% 30.09 in 10.0 mi SSE 9.2 mph - N/A   Clear
4:35 AM 40.5 °F 33.6 °F 28.9 °F 64% 30.07 in 10.0 mi SSE 11.5 mph - N/A   Scattered Clouds
4:55 AM 40.1 °F 34.1 °F 28.9 °F 64% 30.08 in 10.0 mi SE 9.2 mph - N/A   Scattered Clouds
5:15 AM 39.7 °F 33.7 °F 28.9 °F 65% 30.08 in 10.0 mi SSE 9.2 mph - N/A   Scattered Clouds
5:55 AM 37.8 °F 31.8 °F 28.2 °F 68% 30.09 in 10.0 mi SE 8.1 mph - N/A   Clear
6:15 AM 36.9 °F 32.2 °F 28.0 °F 70% 30.09 in 10.0 mi SE 5.8 mph - N/A   Clear
6:55 AM 34.0 °F 28.0 °F 27.3 °F 77% 30.09 in 10.0 mi SE 6.9 mph - N/A   Clear
7:15 AM 33.8 °F 27.7 °F 27.3 °F 77% 30.09 in 10.0 mi SE 6.9 mph - N/A   Clear
7:35 AM 34.7 °F 28.8 °F 27.9 °F 76% 30.09 in 10.0 mi SE 6.9 mph - N/A   Clear
7:55 AM 34.9 °F 29.0 °F 27.9 °F 76% 30.08 in 10.0 mi SE 6.9 mph - N/A   Clear
8:15 AM 34.7 °F 28.8 °F 27.9 °F 76% 30.09 in 10.0 mi SE 6.9 mph - N/A   Clear
8:35 AM 34.9 °F 28.3 °F 28.0 °F 76% 30.09 in 10.0 mi SE 8.1 mph - N/A   Clear
8:55 AM 36.9 °F 33.1 °F 28.6 °F 72% 30.10 in 10.0 mi SSE 4.6 mph - N/A   Clear
9:15 AM 39.0 °F 34.0 °F 29.3 °F 68% 30.11 in 10.0 mi SSE 6.9 mph - N/A   Clear
9:35 AM 41.9 °F 35.4 °F 29.8 °F 62% 30.10 in 10.0 mi South 11.5 mph 16.1 mph N/A   Clear
9:55 AM 43.2 °F 37.0 °F 29.5 °F 59% 30.11 in 10.0 mi South 11.5 mph - N/A   Clear
10:15 AM 44.8 °F 38.3 °F 29.7 °F 55% 30.10 in 10.0 mi South 13.8 mph - N/A   Clear
10:35 AM 45.5 °F 39.6 °F 29.7 °F 54% 30.09 in 10.0 mi South 12.7 mph - N/A   Clear
10:55 AM 46.6 °F - 29.7 °F 52% 30.10 in 10.0 mi South 11.5 mph - N/A   Clear
11:15 AM 48.6 °F - 29.8 °F 48% 30.10 in 10.0 mi South 11.5 mph - N/A   Clear
11:35 AM 49.6 °F - 30.0 °F 47% 30.11 in 10.0 mi South 8.1 mph - N/A   Clear
11:55 AM 51.3 °F - 29.8 °F 44% 30.11 in 10.0 mi SSW 8.1 mph - N/A   Clear
12:15 PM 51.8 °F - 29.7 °F 43% 30.10 in 10.0 mi South 6.9 mph - N/A   Clear
12:35 PM 53.4 °F - 29.7 °F 40% 30.10 in 10.0 mi South 8.1 mph - N/A   Clear
12:55 PM 54.7 °F - 29.8 °F 39% 30.09 in 10.0 mi South 8.1 mph - N/A   Clear
1:15 PM 56.1 °F - 29.5 °F 36% 30.08 in 10.0 mi SSE 6.9 mph - N/A   Clear
1:35 PM 57.0 °F - 29.7 °F 35% 30.08 in 10.0 mi SSE 8.1 mph - N/A   Clear
1:55 PM 58.3 °F - 29.7 °F 34% 30.07 in 10.0 mi South 8.1 mph - N/A   Clear
2:15 PM 58.6 °F - 29.8 °F 34% 30.06 in 10.0 mi SE 6.9 mph - N/A   Clear
2:35 PM 59.4 °F - 29.7 °F 32% 30.06 in 10.0 mi South 10.4 mph - N/A   Clear
2:55 PM 59.7 °F - 30.0 °F 32% 30.05 in 10.0 mi SSE 9.2 mph - N/A   Clear
3:35 PM 60.8 °F - 30.2 °F 31% 30.05 in 10.0 mi SSE 10.4 mph - N/A   Clear
3:55 PM 61.0 °F - 30.4 °F 32% 30.05 in 10.0 mi SSE 8.1 mph - N/A   Clear
4:15 PM 59.4 °F - 30.6 °F 34% 30.05 in 10.0 mi SE 8.1 mph - N/A   Clear
4:35 PM 61.2 °F - 30.7 °F 32% 30.05 in 10.0 mi SSE 10.4 mph - N/A   Clear
4:55 PM 60.8 °F - 30.7 °F 32% 30.04 in 10.0 mi SSE 9.2 mph - N/A   Clear
5:15 PM 60.1 °F - 30.7 °F 33% 30.04 in 10.0 mi SSE 10.4 mph - N/A   Clear
5:35 PM 59.5 °F - 30.7 °F 34% 30.04 in 10.0 mi SE 9.2 mph - N/A   Clear
5:55 PM 57.9 °F - 30.6 °F 35% 30.04 in 10.0 mi SE 8.1 mph - N/A   Clear
6:15 PM 55.6 °F - 30.9 °F 39% 30.04 in 10.0 mi SE 6.9 mph - N/A   Clear
6:35 PM 53.1 °F - 31.1 °F 43% 30.04 in 10.0 mi ESE 6.9 mph - N/A   Clear
6:55 PM 51.4 °F - 31.3 °F 46% 30.05 in 10.0 mi ESE 6.9 mph - N/A   Clear
7:15 PM 51.4 °F - 31.5 °F 46% 30.05 in 10.0 mi ESE 5.8 mph - N/A   Clear
7:35 PM 45.5 °F 44.2 °F 29.7 °F 54% 30.05 in 10.0 mi SE 3.5 mph - N/A   Clear
7:55 PM 43.7 °F - 29.3 °F 57% 30.05 in 10.0 mi Calm Calm - N/A   Clear
10:35 PM 43.0 °F 41.3 °F 31.1 °F 63% 30.06 in 10.0 mi ESE 3.5 mph - N/A   Clear
10:55 PM 45.0 °F 40.6 °F 32.0 °F 60% 30.06 in 10.0 mi ESE 8.1 mph - N/A   Clear
11:15 PM 43.9 °F 39.9 °F 32.0 °F 63% 30.06 in 10.0 mi ESE 6.9 mph - N/A   Clear
11:35 PM 44.6 °F 41.4 °F 32.0 °F 61% 30.06 in 10.0 mi ESE 5.8 mph - N/A   Clear
11:55 PM 43.9 °F 40.5 °F 32.2 °F 63% 30.05 in 10.0 mi SE 5.8 mph - N/A   Clear